contact:dominique.lefevre@mio.osupytheas.fr, maurice.libes@osupytheas.fr, didier.mallarino@osupytheas.fr
Project:EMSO http://www.emso-fr.org/EMSO-France
Depth: 2436.0 m
Title:EMSO Ligure Ouest : Data MII capteur CSTAR
DateTime,Latitude,Longitude,Instrument_Serial,Reference_Counts,Signal_Counts,Corrected_Signal_raw_counts,Calculated_Beam_c_inverse_meters,Internal_thermistor_counts
DateTime,Latitude,Longitude,Instrument_Serial,Reference_Counts,Signal_Counts,Corrected_Signal_raw_counts,Calculated_Beam_c_inverse_meters,Internal_thermistor_counts
2023-12-23T00:00:38,42.805,6.029,CST-1368DR,4078,4301,11174,01.339,553
2023-12-23T00:03:39,42.805,6.029,CST-1368DR,4078,4301,11174,01.339,553
2023-12-23T00:06:41,42.805,6.029,CST-1368DR,4079,4303,11177,01.338,553
2023-12-23T00:09:42,42.805,6.029,CST-1368DR,4079,4304,11179,01.337,553
2023-12-23T00:12:44,42.805,6.029,CST-1368DR,4078,4304,11181,01.336,553
2023-12-23T00:15:45,42.805,6.029,CST-1368DR,4078,4304,11182,01.336,553
2023-12-23T00:18:47,42.805,6.029,CST-1368DR,4079,4306,11183,01.336,553
2023-12-23T00:21:49,42.805,6.029,CST-1368DR,4078,4305,11184,01.335,553
2023-12-23T00:24:50,42.805,6.029,CST-1368DR,4078,4305,11183,01.336,553
2023-12-23T00:27:52,42.805,6.029,CST-1368DR,4078,4303,11178,01.337,553
2023-12-23T00:30:53,42.805,6.029,CST-1368DR,4078,4307,11188,01.334,553
2023-12-23T00:33:55,42.805,6.029,CST-1368DR,4078,4303,11179,01.337,553
2023-12-23T00:36:56,42.805,6.029,CST-1368DR,4078,4303,11178,01.337,553
2023-12-23T00:39:58,42.805,6.029,CST-1368DR,4078,4304,11181,01.336,553
2023-12-23T00:43:00,42.805,6.029,CST-1368DR,4078,4304,11181,01.336,553
2023-12-23T00:46:01,42.805,6.029,CST-1368DR,4078,4305,11184,01.335,553
2023-12-23T00:49:03,42.805,6.029,CST-1368DR,4078,4301,11172,01.340,553
2023-12-23T00:52:04,42.805,6.029,CST-1368DR,4078,4304,11180,01.337,553
2023-12-23T00:55:06,42.805,6.029,CST-1368DR,4078,4304,11181,01.336,553
2023-12-23T00:58:08,42.805,6.029,CST-1368DR,4078,4304,11181,01.336,553
2023-12-23T01:01:09,42.805,6.029,CST-1368DR,4078,4300,11170,01.340,553
2023-12-23T01:04:11,42.805,6.029,CST-1368DR,4078,4303,11178,01.337,553
2023-12-23T01:07:12,42.805,6.029,CST-1368DR,4078,4305,11183,01.336,553
2023-12-23T01:10:14,42.805,6.029,CST-1368DR,4078,4303,11179,01.337,553
2023-12-23T01:13:15,42.805,6.029,CST-1368DR,4078,4303,11178,01.337,553
2023-12-23T01:16:17,42.805,6.029,CST-1368DR,4078,4299,11167,01.341,553
2023-12-23T01:19:19,42.805,6.029,CST-1368DR,4078,4304,11180,01.337,553
2023-12-23T01:22:20,42.805,6.029,CST-1368DR,4078,4304,11181,01.336,553
2023-12-23T01:25:22,42.805,6.029,CST-1368DR,4078,4303,11178,01.337,553
2023-12-23T01:28:23,42.805,6.029,CST-1368DR,4078,4302,11176,01.338,553
2023-12-23T01:31:25,42.805,6.029,CST-1368DR,4078,4302,11176,01.338,553
2023-12-23T01:34:26,42.805,6.029,CST-1368DR,4078,4306,11185,01.335,553
2023-12-23T01:37:28,42.805,6.029,CST-1368DR,4078,4305,11183,01.336,553
2023-12-23T01:40:30,42.805,6.029,CST-1368DR,4078,4304,11181,01.336,553
2023-12-23T01:43:31,42.805,6.029,CST-1368DR,4078,4304,11181,01.336,553
2023-12-23T01:46:33,42.805,6.029,CST-1368DR,4079,4303,11176,01.338,553
2023-12-23T01:49:34,42.805,6.029,CST-1368DR,4078,4302,11175,01.338,553
2023-12-23T01:52:36,42.805,6.029,CST-1368DR,4078,4303,11179,01.337,553
2023-12-23T01:55:38,42.805,6.029,CST-1368DR,4078,4303,11179,01.337,553
2023-12-23T01:58:39,42.805,6.029,CST-1368DR,4078,4302,11176,01.338,553
2023-12-23T02:01:41,42.805,6.029,CST-1368DR,4078,4304,11181,01.336,553
2023-12-23T02:04:42,42.805,6.029,CST-1368DR,4078,4303,11178,01.337,553
2023-12-23T02:07:44,42.805,6.029,CST-1368DR,4078,4302,11175,01.338,553
2023-12-23T02:10:45,42.805,6.029,CST-1368DR,4078,4296,11159,01.344,553
2023-12-23T02:13:47,42.805,6.029,CST-1368DR,4078,4302,11176,01.338,553
2023-12-23T02:16:49,42.805,6.029,CST-1368DR,4078,4302,11176,01.338,553
2023-12-23T02:19:50,42.805,6.029,CST-1368DR,4078,4302,11176,01.338,553
2023-12-23T02:22:52,42.805,6.029,CST-1368DR,4078,4301,11174,01.339,553
2023-12-23T02:25:53,42.805,6.029,CST-1368DR,4078,4302,11176,01.338,553
2023-12-23T02:28:55,42.805,6.029,CST-1368DR,4078,4302,11177,01.338,553
2023-12-23T02:31:56,42.805,6.029,CST-1368DR,4078,4300,11170,01.340,553
2023-12-23T02:34:58,42.805,6.029,CST-1368DR,4078,4301,11173,01.339,553
2023-12-23T02:38:00,42.805,6.029,CST-1368DR,4078,4298,11166,01.342,553
2023-12-23T02:41:01,42.805,6.029,CST-1368DR,4078,4307,11188,01.334,553
2023-12-23T02:44:03,42.805,6.029,CST-1368DR,4078,4301,11172,01.340,553
2023-12-23T02:47:04,42.805,6.029,CST-1368DR,4078,4301,11172,01.340,553
2023-12-23T02:50:06,42.805,6.029,CST-1368DR,4078,4302,11176,01.338,553
2023-12-23T02:53:08,42.805,6.029,CST-1368DR,4078,4301,11172,01.340,553
2023-12-23T02:56:09,42.805,6.029,CST-1368DR,4078,4302,11175,01.338,553
2023-12-23T02:59:11,42.805,6.029,CST-1368DR,4078,4301,11174,01.339,553
2023-12-23T03:02:12,42.805,6.029,CST-1368DR,4078,4300,11170,01.340,553
2023-12-23T03:05:14,42.805,6.029,CST-1368DR,4078,4299,11168,01.341,553
2023-12-23T03:08:15,42.805,6.029,CST-1368DR,4078,4301,11174,01.339,553
2023-12-23T03:11:17,42.805,6.029,CST-1368DR,4078,4300,11171,01.340,553
2023-12-23T03:14:19,42.805,6.029,CST-1368DR,4078,4301,11173,01.339,553
2023-12-23T03:17:20,42.805,6.029,CST-1368DR,4078,4303,11178,01.337,553
2023-12-23T03:20:22,42.805,6.029,CST-1368DR,4078,4302,11175,01.338,553
2023-12-23T03:23:23,42.805,6.029,CST-1368DR,4078,4302,11177,01.338,553
2023-12-23T03:26:25,42.805,6.029,CST-1368DR,4078,4300,11172,01.340,553
2023-12-23T03:29:26,42.805,6.029,CST-1368DR,4078,4299,11168,01.341,553
2023-12-23T03:32:28,42.805,6.029,CST-1368DR,4078,4302,11177,01.338,553
2023-12-23T03:35:30,42.805,6.029,CST-1368DR,4078,4302,11177,01.338,553
2023-12-23T03:38:31,42.805,6.029,CST-1368DR,4078,4304,11181,01.336,553
2023-12-23T03:41:33,42.805,6.029,CST-1368DR,4078,4303,11178,01.337,553
2023-12-23T03:44:34,42.805,6.029,CST-1368DR,4078,4302,11175,01.338,553
2023-12-23T03:47:36,42.805,6.029,CST-1368DR,4078,4302,11177,01.338,553
2023-12-23T03:50:38,42.805,6.029,CST-1368DR,4078,4301,11172,01.340,553
2023-12-23T03:53:39,42.805,6.029,CST-1368DR,4078,4303,11179,01.337,553
2023-12-23T03:56:41,42.805,6.029,CST-1368DR,4078,4303,11179,01.337,553
2023-12-23T03:59:42,42.805,6.029,CST-1368DR,4078,4303,11179,01.337,553
2023-12-23T04:02:44,42.805,6.029,CST-1368DR,4078,4305,11183,01.336,553
2023-12-23T04:05:45,42.805,6.029,CST-1368DR,4078,4304,11181,01.336,553
2023-12-23T04:08:47,42.805,6.029,CST-1368DR,4078,4305,11184,01.335,553
2023-12-23T04:11:49,42.805,6.029,CST-1368DR,4078,4304,11181,01.336,553
2023-12-23T04:14:50,42.805,6.029,CST-1368DR,4078,4304,11182,01.336,553
2023-12-23T04:17:52,42.805,6.029,CST-1368DR,4078,4304,11180,01.337,553
2023-12-23T04:20:53,42.805,6.029,CST-1368DR,4078,4303,11179,01.337,553
2023-12-23T04:23:55,42.805,6.029,CST-1368DR,4078,4303,11179,01.337,553
2023-12-23T04:26:56,42.805,6.029,CST-1368DR,4078,4303,11178,01.337,553
2023-12-23T04:29:58,42.805,6.029,CST-1368DR,4078,4304,11182,01.336,553
2023-12-23T04:33:00,42.805,6.029,CST-1368DR,4078,4303,11179,01.337,553
2023-12-23T04:36:01,42.805,6.029,CST-1368DR,4078,4303,11178,01.337,553
2023-12-23T04:39:03,42.805,6.029,CST-1368DR,4078,4301,11174,01.339,553
2023-12-23T04:42:04,42.805,6.029,CST-1368DR,4078,4304,11181,01.336,553
2023-12-23T04:45:06,42.805,6.029,CST-1368DR,4078,4303,11179,01.337,553
2023-12-23T04:48:07,42.805,6.029,CST-1368DR,4078,4303,11178,01.337,553
2023-12-23T04:51:09,42.805,6.029,CST-1368DR,4078,4301,11172,01.340,553
2023-12-23T04:54:11,42.805,6.029,CST-1368DR,4078,4302,11177,01.338,553
2023-12-23T04:57:12,42.805,6.029,CST-1368DR,4078,4303,11179,01.337,553
2023-12-23T05:00:14,42.805,6.029,CST-1368DR,4078,4303,11178,01.337,553
2023-12-23T05:03:15,42.805,6.029,CST-1368DR,4078,4301,11174,01.339,553
2023-12-23T05:06:17,42.805,6.029,CST-1368DR,4078,4302,11175,01.338,553
2023-12-23T05:09:19,42.805,6.029,CST-1368DR,4078,4301,11173,01.339,553
2023-12-23T05:12:20,42.805,6.029,CST-1368DR,4078,4302,11175,01.338,553
2023-12-23T05:15:22,42.805,6.029,CST-1368DR,4078,4301,11174,01.339,553
2023-12-23T05:18:23,42.805,6.029,CST-1368DR,4078,4300,11172,01.340,553
2023-12-23T05:21:25,42.805,6.029,CST-1368DR,4078,4300,11170,01.340,553
2023-12-23T05:24:26,42.805,6.029,CST-1368DR,4078,4301,11174,01.339,553
2023-12-23T05:27:28,42.805,6.029,CST-1368DR,4078,4300,11171,01.340,553
2023-12-23T05:30:29,42.805,6.029,CST-1368DR,4078,4299,11167,01.341,553
2023-12-23T05:33:31,42.805,6.029,CST-1368DR,4078,4299,11168,01.341,553
2023-12-23T05:36:33,42.805,6.029,CST-1368DR,4078,4299,11167,01.341,553
2023-12-23T05:39:34,42.805,6.029,CST-1368DR,4078,4299,11168,01.341,553
2023-12-23T05:42:36,42.805,6.029,CST-1368DR,4078,4300,11170,01.340,553
2023-12-23T05:45:37,42.805,6.029,CST-1368DR,4078,4300,11170,01.340,553
2023-12-23T05:48:39,42.805,6.029,CST-1368DR,4078,4299,11167,01.341,553
2023-12-23T05:51:40,42.805,6.029,CST-1368DR,4078,4299,11167,01.341,553
2023-12-23T05:54:42,42.805,6.029,CST-1368DR,4078,4298,11166,01.342,553
2023-12-23T05:57:44,42.805,6.029,CST-1368DR,4078,4299,11168,01.341,553
2023-12-23T06:00:45,42.805,6.029,CST-1368DR,4078,4298,11165,01.342,553
2023-12-23T06:03:47,42.805,6.029,CST-1368DR,4078,4298,11165,01.342,553
2023-12-23T06:06:48,42.805,6.029,CST-1368DR,4078,4298,11165,01.342,553
2023-12-23T06:09:50,42.805,6.029,CST-1368DR,4078,4298,11166,01.342,553
2023-12-23T06:12:52,42.805,6.029,CST-1368DR,4078,4298,11166,01.342,553
2023-12-23T06:15:53,42.805,6.029,CST-1368DR,4078,4295,11157,01.345,553
2023-12-23T06:18:55,42.805,6.029,CST-1368DR,4078,4295,11159,01.344,553
2023-12-23T06:21:56,42.805,6.029,CST-1368DR,4078,4295,11159,01.344,553
2023-12-23T06:24:58,42.805,6.029,CST-1368DR,4078,4296,11161,01.343,553
2023-12-23T06:27:59,42.805,6.029,CST-1368DR,4078,4296,11161,01.343,553
2023-12-23T06:31:01,42.805,6.029,CST-1368DR,4078,4295,11157,01.345,553
2023-12-23T06:34:03,42.805,6.029,CST-1368DR,4078,4295,11157,01.345,553
2023-12-23T06:37:04,42.805,6.029,CST-1368DR,4078,4296,11161,01.343,553
2023-12-23T06:40:06,42.805,6.029,CST-1368DR,4078,4296,11161,01.343,553
2023-12-23T06:43:07,42.805,6.029,CST-1368DR,4078,4291,11148,01.348,553
2023-12-23T06:46:09,42.805,6.029,CST-1368DR,4078,4295,11157,01.345,553
2023-12-23T06:49:10,42.805,6.029,CST-1368DR,4078,4295,11157,01.345,553
2023-12-23T06:52:12,42.805,6.029,CST-1368DR,4078,4295,11158,01.345,553
2023-12-23T06:55:14,42.805,6.029,CST-1368DR,4078,4295,11159,01.344,553
2023-12-23T06:58:15,42.805,6.029,CST-1368DR,4078,4296,11161,01.343,553
2023-12-23T07:01:17,42.805,6.029,CST-1368DR,4078,4298,11165,01.342,553
2023-12-23T07:04:18,42.805,6.029,CST-1368DR,4078,4298,11165,01.342,553
2023-12-23T07:07:20,42.805,6.029,CST-1368DR,4078,4297,11163,01.343,553
2023-12-23T07:10:22,42.805,6.029,CST-1368DR,4078,4296,11161,01.343,553
2023-12-23T07:13:23,42.805,6.029,CST-1368DR,4078,4298,11166,01.342,553
2023-12-23T07:16:25,42.805,6.029,CST-1368DR,4078,4298,11166,01.342,553
2023-12-23T07:19:26,42.805,6.029,CST-1368DR,4078,4298,11165,01.342,553
2023-12-23T07:22:28,42.805,6.029,CST-1368DR,4078,4298,11165,01.342,553
2023-12-23T07:25:29,42.805,6.029,CST-1368DR,4078,4298,11165,01.342,553
2023-12-23T07:28:31,42.805,6.029,CST-1368DR,4078,4298,11166,01.342,553
2023-12-23T07:31:33,42.805,6.029,CST-1368DR,4078,4300,11171,01.340,553
2023-12-23T07:34:34,42.805,6.029,CST-1368DR,4078,4299,11168,01.341,553
2023-12-23T07:37:36,42.805,6.029,CST-1368DR,4078,4300,11171,01.340,553
2023-12-23T07:40:37,42.805,6.029,CST-1368DR,4078,4299,11168,01.341,553
2023-12-23T07:43:39,42.805,6.029,CST-1368DR,4078,4299,11169,01.341,553
2023-12-23T07:46:41,42.805,6.029,CST-1368DR,4078,4297,11164,01.342,553
2023-12-23T07:49:42,42.805,6.029,CST-1368DR,4078,4298,11165,01.342,553
2023-12-23T07:52:44,42.805,6.029,CST-1368DR,4078,4299,11168,01.341,553
2023-12-23T07:55:45,42.805,6.029,CST-1368DR,4078,4298,11166,01.342,553
2023-12-23T07:58:47,42.805,6.029,CST-1368DR,4078,4298,11165,01.342,553
2023-12-23T08:01:49,42.805,6.029,CST-1368DR,4078,4299,11167,01.341,553
2023-12-23T08:04:50,42.805,6.029,CST-1368DR,4078,4298,11165,01.342,553
2023-12-23T08:07:52,42.805,6.029,CST-1368DR,4078,4297,11163,01.343,553
2023-12-23T08:10:53,42.805,6.029,CST-1368DR,4078,4298,11166,01.342,553
2023-12-23T08:13:55,42.805,6.029,CST-1368DR,4078,4300,11170,01.340,553
2023-12-23T08:16:56,42.805,6.029,CST-1368DR,4078,4298,11166,01.342,553
2023-12-23T08:19:58,42.805,6.029,CST-1368DR,4078,4298,11166,01.342,553
2023-12-23T08:23:00,42.805,6.029,CST-1368DR,4078,4298,11165,01.342,553
2023-12-23T08:26:01,42.805,6.029,CST-1368DR,4078,4297,11164,01.342,553
2023-12-23T08:29:03,42.805,6.029,CST-1368DR,4078,4298,11166,01.342,553
2023-12-23T08:32:04,42.805,6.029,CST-1368DR,4078,4295,11158,01.345,553
2023-12-23T08:35:06,42.805,6.029,CST-1368DR,4078,4298,11166,01.342,553
2023-12-23T08:38:07,42.805,6.029,CST-1368DR,4078,4296,11161,01.343,553
2023-12-23T08:41:09,42.805,6.029,CST-1368DR,4078,4296,11161,01.343,553
2023-12-23T08:44:11,42.805,6.029,CST-1368DR,4078,4296,11159,01.344,553
2023-12-23T08:47:12,42.805,6.029,CST-1368DR,4078,4295,11158,01.345,553
2023-12-23T08:50:14,42.805,6.029,CST-1368DR,4078,4297,11162,01.343,553
2023-12-23T08:53:15,42.805,6.029,CST-1368DR,4078,4295,11157,01.345,553
2023-12-23T08:56:17,42.805,6.029,CST-1368DR,4078,4297,11163,01.343,553
2023-12-23T08:59:19,42.805,6.029,CST-1368DR,4078,4296,11161,01.343,553
2023-12-23T09:02:20,42.805,6.029,CST-1368DR,4078,4295,11158,01.345,553
2023-12-23T09:05:22,42.805,6.029,CST-1368DR,4078,4295,11159,01.344,553
2023-12-23T09:08:23,42.805,6.029,CST-1368DR,4078,4296,11161,01.343,553
2023-12-23T09:11:25,42.805,6.029,CST-1368DR,4078,4298,11165,01.342,553
2023-12-23T09:14:26,42.805,6.029,CST-1368DR,4078,4297,11163,01.343,553
2023-12-23T09:17:28,42.805,6.029,CST-1368DR,4078,4297,11163,01.343,553
2023-12-23T09:20:30,42.805,6.029,CST-1368DR,4078,4297,11162,01.343,553
2023-12-23T09:23:31,42.805,6.029,CST-1368DR,4078,4296,11161,01.343,553
2023-12-23T09:26:33,42.805,6.029,CST-1368DR,4078,4297,11162,01.343,553
2023-12-23T09:29:34,42.805,6.029,CST-1368DR,4078,4297,11163,01.343,553
2023-12-23T09:32:36,42.805,6.029,CST-1368DR,4078,4297,11163,01.343,553
2023-12-23T09:35:38,42.805,6.029,CST-1368DR,4078,4297,11163,01.343,553
2023-12-23T09:38:39,42.805,6.029,CST-1368DR,4078,4296,11161,01.343,553
2023-12-23T09:41:41,42.805,6.029,CST-1368DR,4078,4299,11167,01.341,553
2023-12-23T09:44:42,42.805,6.029,CST-1368DR,4078,4298,11166,01.342,553
2023-12-23T09:47:44,42.805,6.029,CST-1368DR,4078,4298,11166,01.342,553
2023-12-23T09:50:45,42.805,6.029,CST-1368DR,4078,4298,11165,01.342,553
2023-12-23T09:53:47,42.805,6.029,CST-1368DR,4078,4294,11154,01.346,553
2023-12-23T09:56:49,42.805,6.029,CST-1368DR,4078,4300,11171,01.340,553
2023-12-23T09:59:50,42.805,6.029,CST-1368DR,4078,4297,11163,01.343,553
2023-12-23T10:02:52,42.805,6.029,CST-1368DR,4078,4298,11165,01.342,553
2023-12-23T10:05:53,42.805,6.029,CST-1368DR,4078,4297,11163,01.343,553
2023-12-23T10:08:55,42.805,6.029,CST-1368DR,4078,4295,11158,01.345,553
2023-12-23T10:11:57,42.805,6.029,CST-1368DR,4078,4295,11157,01.345,553
2023-12-23T10:14:58,42.805,6.029,CST-1368DR,4078,4296,11159,01.344,553
2023-12-23T10:18:00,42.805,6.029,CST-1368DR,4078,4294,11156,01.345,553
2023-12-23T10:21:01,42.805,6.029,CST-1368DR,4078,4289,11141,01.351,553
2023-12-23T10:24:03,42.805,6.029,CST-1368DR,4078,4293,11153,01.346,553
2023-12-23T10:27:04,42.805,6.029,CST-1368DR,4078,4294,11155,01.346,553
2023-12-23T10:30:06,42.805,6.029,CST-1368DR,4078,4293,11153,01.346,553
2023-12-23T10:33:08,42.805,6.029,CST-1368DR,4078,4295,11157,01.345,553
2023-12-23T10:36:09,42.805,6.029,CST-1368DR,4078,4297,11163,01.343,553
2023-12-23T10:39:11,42.805,6.029,CST-1368DR,4078,4299,11168,01.341,553
2023-12-23T10:42:12,42.805,6.029,CST-1368DR,4078,4298,11166,01.342,553
2023-12-23T10:45:14,42.805,6.029,CST-1368DR,4078,4300,11170,01.340,553
2023-12-23T10:48:15,42.805,6.029,CST-1368DR,4078,4298,11165,01.342,553
2023-12-23T10:51:17,42.805,6.029,CST-1368DR,4078,4301,11173,01.339,553
2023-12-23T10:54:19,42.805,6.029,CST-1368DR,4078,4299,11169,01.341,553
2023-12-23T10:57:20,42.805,6.029,CST-1368DR,4078,4298,11165,01.342,553
2023-12-23T11:00:22,42.805,6.029,CST-1368DR,4078,4299,11169,01.341,553
2023-12-23T11:03:23,42.805,6.029,CST-1368DR,4078,4297,11163,01.343,553
2023-12-23T11:06:25,42.805,6.029,CST-1368DR,4078,4296,11161,01.343,553
2023-12-23T11:09:27,42.805,6.029,CST-1368DR,4078,4298,11166,01.342,553
2023-12-23T11:12:28,42.805,6.029,CST-1368DR,4078,4297,11163,01.343,553
2023-12-23T11:15:30,42.805,6.029,CST-1368DR,4078,4298,11165,01.342,553
2023-12-23T11:18:31,42.805,6.029,CST-1368DR,4078,4298,11165,01.342,553
2023-12-23T11:21:33,42.805,6.029,CST-1368DR,4078,4299,11168,01.341,553
2023-12-23T11:24:34,42.805,6.029,CST-1368DR,4078,4299,11169,01.341,553
2023-12-23T11:27:36,42.805,6.029,CST-1368DR,4078,4298,11165,01.342,553
2023-12-23T11:30:39,42.805,6.029,CST-1368DR,4078,4297,11163,01.343,553
2023-12-23T11:33:41,42.805,6.029,CST-1368DR,4078,4298,11165,01.342,553
2023-12-23T11:36:42,42.805,6.029,CST-1368DR,4078,4298,11166,01.342,553
2023-12-23T11:39:44,42.805,6.029,CST-1368DR,4078,4298,11166,01.342,553
2023-12-23T11:42:45,42.805,6.029,CST-1368DR,4078,4298,11166,01.342,553
2023-12-23T11:45:47,42.805,6.029,CST-1368DR,4078,4300,11170,01.340,553
2023-12-23T11:48:49,42.805,6.029,CST-1368DR,4078,4298,11165,01.342,553
2023-12-23T11:51:50,42.805,6.029,CST-1368DR,4078,4296,11161,01.343,553
2023-12-23T11:54:52,42.805,6.029,CST-1368DR,4078,4296,11161,01.343,553
2023-12-23T11:57:53,42.805,6.029,CST-1368DR,4078,4298,11165,01.342,553
2023-12-23T12:00:55,42.805,6.029,CST-1368DR,4078,4300,11170,01.340,553
2023-12-23T12:03:56,42.805,6.029,CST-1368DR,4078,4300,11170,01.340,553
2023-12-23T12:06:58,42.805,6.029,CST-1368DR,4078,4300,11170,01.340,553
2023-12-23T12:10:00,42.805,6.029,CST-1368DR,4078,4302,11175,01.338,553
2023-12-23T12:13:01,42.805,6.029,CST-1368DR,4078,4302,11176,01.338,553
2023-12-23T12:16:03,42.805,6.029,CST-1368DR,4078,4297,11164,01.342,553
2023-12-23T12:19:04,42.805,6.029,CST-1368DR,4078,4301,11174,01.339,553
2023-12-23T12:22:06,42.805,6.029,CST-1368DR,4078,4299,11168,01.341,553
2023-12-23T12:25:08,42.805,6.029,CST-1368DR,4078,4298,11166,01.342,553
2023-12-23T12:28:09,42.805,6.029,CST-1368DR,4078,4298,11166,01.342,553
2023-12-23T12:31:11,42.805,6.029,CST-1368DR,4078,4301,11174,01.339,553
2023-12-23T12:34:12,42.805,6.029,CST-1368DR,4078,4301,11172,01.340,553
2023-12-23T12:37:14,42.805,6.029,CST-1368DR,4078,4297,11163,01.343,553
2023-12-23T12:40:15,42.805,6.029,CST-1368DR,4078,4297,11164,01.342,553
2023-12-23T12:43:17,42.805,6.029,CST-1368DR,4078,4299,11167,01.341,553
2023-12-23T12:46:19,42.805,6.029,CST-1368DR,4078,4298,11166,01.342,553
2023-12-23T12:49:20,42.805,6.029,CST-1368DR,4078,4303,11178,01.337,553
2023-12-23T12:52:22,42.805,6.029,CST-1368DR,4078,4299,11169,01.341,553
2023-12-23T12:55:23,42.805,6.029,CST-1368DR,4078,4301,11174,01.339,553
2023-12-23T12:58:25,42.805,6.029,CST-1368DR,4078,4298,11165,01.342,553
2023-12-23T13:01:27,42.805,6.029,CST-1368DR,4078,4299,11168,01.341,553
2023-12-23T13:04:28,42.805,6.029,CST-1368DR,4078,4298,11165,01.342,553
2023-12-23T13:07:30,42.805,6.029,CST-1368DR,4078,4302,11176,01.338,553
2023-12-23T13:10:31,42.805,6.029,CST-1368DR,4078,4298,11166,01.342,553
2023-12-23T13:13:33,42.805,6.029,CST-1368DR,4078,4301,11174,01.339,553
2023-12-23T13:16:34,42.805,6.029,CST-1368DR,4078,4301,11174,01.339,553
2023-12-23T13:19:36,42.805,6.029,CST-1368DR,4078,4302,11175,01.338,553
2023-12-23T13:22:38,42.805,6.029,CST-1368DR,4078,4290,11144,01.350,553
2023-12-23T13:25:39,42.805,6.029,CST-1368DR,4078,4274,11103,01.364,553
2023-12-23T13:28:41,42.805,6.029,CST-1368DR,4078,4294,11155,01.346,553
2023-12-23T13:31:42,42.805,6.029,CST-1368DR,4078,4290,11144,01.350,553
2023-12-23T13:34:44,42.805,6.029,CST-1368DR,4078,4295,11159,01.344,553
2023-12-23T13:37:46,42.805,6.029,CST-1368DR,4078,4293,11152,01.347,553
2023-12-23T13:40:47,42.805,6.029,CST-1368DR,4078,4293,11153,01.346,553
2023-12-23T13:43:49,42.805,6.029,CST-1368DR,4078,4299,11168,01.341,553
2023-12-23T13:46:50,42.805,6.029,CST-1368DR,4078,4296,11161,01.343,553
2023-12-23T13:49:52,42.805,6.029,CST-1368DR,4078,4296,11161,01.343,553
2023-12-23T13:52:53,42.805,6.029,CST-1368DR,4078,4295,11158,01.345,553
2023-12-23T13:55:55,42.805,6.029,CST-1368DR,4078,4293,11153,01.346,553
2023-12-23T13:58:57,42.805,6.029,CST-1368DR,4078,4291,11148,01.348,553
2023-12-23T14:01:58,42.805,6.029,CST-1368DR,4078,4291,11148,01.348,553
2023-12-23T14:05:00,42.805,6.029,CST-1368DR,4078,4289,11142,01.350,553
2023-12-23T14:08:01,42.805,6.029,CST-1368DR,4078,4290,11146,01.349,553
2023-12-23T14:11:03,42.805,6.029,CST-1368DR,4078,4290,11145,01.349,553
2023-12-23T14:14:05,42.805,6.029,CST-1368DR,4078,4290,11144,01.350,553
2023-12-23T14:17:06,42.805,6.029,CST-1368DR,4078,4291,11148,01.348,553
2023-12-23T14:20:08,42.805,6.029,CST-1368DR,4078,4292,11150,01.347,553
2023-12-23T14:23:09,42.805,6.029,CST-1368DR,4078,4290,11144,01.350,553
2023-12-23T14:26:11,42.805,6.029,CST-1368DR,4078,4290,11145,01.349,553
2023-12-23T14:29:12,42.805,6.029,CST-1368DR,4078,4292,11150,01.347,553
2023-12-23T14:32:14,42.805,6.029,CST-1368DR,4078,4291,11148,01.348,553
2023-12-23T14:35:16,42.805,6.029,CST-1368DR,4078,4291,11148,01.348,553
2023-12-23T14:38:17,42.805,6.029,CST-1368DR,4078,4302,11175,01.338,553
2023-12-23T14:41:19,42.805,6.029,CST-1368DR,4078,4302,11176,01.338,553
2023-12-23T14:44:20,42.805,6.029,CST-1368DR,4078,4302,11175,01.338,553
2023-12-23T14:47:22,42.805,6.029,CST-1368DR,4078,4301,11173,01.339,553
2023-12-23T14:50:24,42.805,6.029,CST-1368DR,4078,4302,11175,01.338,553
2023-12-23T14:53:25,42.805,6.029,CST-1368DR,4078,4301,11174,01.339,553
2023-12-23T14:56:27,42.805,6.029,CST-1368DR,4078,4302,11176,01.338,553
2023-12-23T14:59:28,42.805,6.029,CST-1368DR,4078,4302,11176,01.338,553
2023-12-23T15:02:30,42.805,6.029,CST-1368DR,4078,4302,11176,01.338,553
2023-12-23T15:05:31,42.805,6.029,CST-1368DR,4078,4302,11176,01.338,553
2023-12-23T15:08:33,42.805,6.029,CST-1368DR,4078,4303,11178,01.337,553
2023-12-23T15:11:35,42.805,6.029,CST-1368DR,4078,4302,11177,01.338,553
2023-12-23T15:14:36,42.805,6.029,CST-1368DR,4078,4302,11175,01.338,553
2023-12-23T15:17:38,42.805,6.029,CST-1368DR,4078,4300,11172,01.340,553
2023-12-23T15:20:39,42.805,6.029,CST-1368DR,4078,4300,11172,01.340,553
2023-12-23T15:23:41,42.805,6.029,CST-1368DR,4078,4302,11176,01.338,553
2023-12-23T15:26:42,42.805,6.029,CST-1368DR,4078,4302,11175,01.338,553
2023-12-23T15:29:44,42.805,6.029,CST-1368DR,4078,4301,11174,01.339,553
2023-12-23T15:32:46,42.805,6.029,CST-1368DR,4078,4300,11170,01.340,553
2023-12-23T15:35:47,42.805,6.029,CST-1368DR,4078,4301,11173,01.339,553
2023-12-23T15:38:49,42.805,6.029,CST-1368DR,4078,4301,11172,01.340,553
2023-12-23T15:41:50,42.805,6.029,CST-1368DR,4078,4300,11172,01.340,553
2023-12-23T15:44:52,42.805,6.029,CST-1368DR,4078,4300,11172,01.340,553
2023-12-23T15:47:54,42.805,6.029,CST-1368DR,4078,4301,11172,01.340,553
2023-12-23T15:50:55,42.805,6.029,CST-1368DR,4078,4299,11168,01.341,553
2023-12-23T15:53:57,42.805,6.029,CST-1368DR,4078,4303,11179,01.337,553
2023-12-23T15:56:58,42.805,6.029,CST-1368DR,4078,4299,11169,01.341,553
2023-12-23T16:00:00,42.805,6.029,CST-1368DR,4078,4300,11171,01.340,553
2023-12-23T16:03:02,42.805,6.029,CST-1368DR,4078,4299,11169,01.341,553
2023-12-23T16:06:03,42.805,6.029,CST-1368DR,4078,4300,11170,01.340,553
2023-12-23T16:09:05,42.805,6.029,CST-1368DR,4078,4299,11168,01.341,553
2023-12-23T16:12:06,42.805,6.029,CST-1368DR,4078,4299,11167,01.341,553
2023-12-23T16:15:08,42.805,6.029,CST-1368DR,4078,4300,11170,01.340,553
2023-12-23T16:18:09,42.805,6.029,CST-1368DR,4078,4299,11168,01.341,553
2023-12-23T16:21:11,42.805,6.029,CST-1368DR,4078,4299,11169,01.341,553
2023-12-23T16:24:13,42.805,6.029,CST-1368DR,4078,4297,11163,01.343,553
2023-12-23T16:27:14,42.805,6.029,CST-1368DR,4078,4299,11167,01.341,553
2023-12-23T16:30:16,42.805,6.029,CST-1368DR,4078,4297,11163,01.343,553
2023-12-23T16:33:17,42.805,6.029,CST-1368DR,4078,4298,11165,01.342,553
2023-12-23T16:36:19,42.805,6.029,CST-1368DR,4078,4297,11162,01.343,553